Location: Ariel
(45.9570°N, 122.5700°W)
Time: 07:12:50
(UTC-07:00)

Altair - Pass Details

Date: 23 July 2019
Orbit: 1501 x 1683 km, 47.2° (Epoch: 22 August)

Event Time Altitude Azimuth Distance (km) Brightness Sun altitude
Rises 20:49:02 0° 284° (WNW) 4,686 11.9 -0.6°
Reaches altitude 10° 20:54:50 10° 256° (WSW) 3,737 10.3 -1.5°
Maximum altitude 20:57:50 12° 237° (WSW) 3,606 9.8 -1.9°
Drops below altitude 10° 21:00:52 10° 218° (SW) 3,776 9.7 -2.4°
Sets 21:06:53 0° 190° (S) 4,803 9.9 -3.3°
